Flag for Germany Weather past 2 weeks in Leer, Lower Saxony, Germany

Now
43 °F

Overcast.


Feels Like: 40 °F
Forecast: 37 / 50 °F
Wind: 6 mph from West

Location: Emden-Koenigspolder

Current Time: Mar 27, 2015 at 8:11:03 PM

Latest Report: Mar 27, 2015 at 8:00 PM


Visibility: 12 mi

Pressure: 30.11 "Hg

Humidity: 87%

Dew point: 40 °F

Location of LeerLocation

Historic Weather in Leer — Graph

°F

Leer temperature yesterday

Maximum temperature yesterday: 45 °F (at 1:00 PM)
Minimum temperature yesterday: 40 °F (at 2:00 AM)
Average temperature yesterday: 42 °F

Past Weeks' High & Low Weather Summary

 TemperatureHumidityPressure
High57 °F (Mar 17, 4:00 PM)100% (Mar 18, 3:00 AM)30.46 "Hg (Mar 18, 3:00 AM)
Low30 °F (Mar 13, 7:00 AM)42% (Mar 19, 4:00 PM)29.64 "Hg (Mar 26, 11:00 PM)
Average42 °F81%30.15 "Hg
* Reported Mar 12 7:00 PM — Mar 27 7:00 PM, Leer, Weather by CustomWeather, © 2015

Note: Actual official high and low records may vary slightly from our data, if they occured in-between our weather recording intervals... More about our weather records

Advertising

Leer weather history for previous 24 hours

 ConditionsComfort  
Time TempWeatherWind HumidityBarometerVisibility
7:00 PM
Fri, Mar 27
43 °FOvercast.6 mph86%30.08 "Hg7 mi
6:00 PM43 °FPassing clouds.8 mph82%30.05 "Hg7 mi
5:00 PM44 °FOvercast.9 mph80%30.02 "Hg6 mi
3:00 PM43 °FLight freezing rain. Low clouds.10 mph93%29.96 "Hg2 mi
2:00 PM45 °FLow clouds.8 mph87%29.92 "Hg9 mi
1:00 PM45 °FOvercast.10 mph83%29.88 "Hg22 mi
12:00 PM45 °FLow clouds.9 mph85%29.84 "Hg22 mi
11:00 AM44 °FLow clouds.10 mph95%29.81 "Hg8 mi
9:00 AM42 °FLight freezing rain. Low clouds.6 mph88%29.78 "Hg15 mi
8:00 AM42 °FLight rain. Low clouds.7 mph91%29.76 "Hg7 mi
7:00 AM42 °FOvercast.5 mph87%29.74 "Hg19 mi
6:00 AM42 °FOvercast.5 mph88%29.71 "Hg19 mi
5:00 AM42 °FOvercast.3 mph86%29.70 "Hg19 mi
3:00 AM42 °FOvercast.5 mph88%29.68 "Hg12 mi
2:00 AM43 °FOvercast.5 mph90%29.67 "Hg11 mi
1:00 AM42 °FLight freezing rain. Low clouds.5 mph93%29.65 "Hg2 mi
12:00 AM41 °FLow clouds.6 mph93%29.64 "Hg4 mi
11:00 PM
Thu, Mar 26
40 °FLow clouds.7 mph94%29.64 "Hg4 mi
10:00 PM40 °FLow clouds.8 mph93%29.65 "Hg6 mi
9:00 PM40 °FDrizzle. Low clouds.8 mph90%29.66 "Hg6 mi
8:00 PM40 °FLight rain. Overcast.8 mph88%29.67 "Hg11 mi
Weather by CustomWeather, © 2015

See weather overviewHow to use our weather pages